Regional Weather Roundup
Issued by NWS Portland, ME

Current Version | Previous Version | Graphics & Text | Print | Product List | Glossary Off
Versions: 1 2 3 4 5 6 7 8 9 10 11 12 13 14 15 16 17 18 19 20 21 22 23 24 25 26 27 28 29 30 31 32 33 34 35 36 37 38 39 40 41 42 43 44 45 46 47 48 49 50
000 ASUS41 KGYX 281410 RWRGYX WEATHER ROUNDUP FOR MAINE AND NEW HAMPSHIRE NATIONAL WEATHER SERVICE GRAY ME 1000 AM EDT WED JUN 28 2017 MEZ002-005-006-010-012-015-018-020-021-024-026-027-029-281500- MAINE CITY SKY/WX TMP DP RH WIND PRES REMARKS PORTLAND MOSUNNY 67 53 61 NW13 29.96F SANFORD MOSUNNY 66 54 65 W13G18 29.98F BAR HARBOR CLOUDY 62 55 77 VRB3 29.93S WISCASSET SUNNY 67 55 65 MISG 29.96F ROCKLAND MOSUNNY 64 55 72 W8 29.94S FRYEBURG SUNNY 66 52 60 W7 29.97F LEWISTONAUBURN PTSUNNY 64 53 67 W9 29.96S AUGUSTA MOSUNNY 63 50 62 W7 29.95S WATERVILLE PTSUNNY 64 54 69 VRB5 29.92S BANGOR PTSUNNY 64 55 72 W7 29.92F GREENVILLE N/A 59 51 75 VRB5 29.91F MILLINOCKET CLOUDY 61 55 81 VRB6 29.92S HOULTON PTSUNNY 64 56 75 W5 29.89S PRESQUE ISLE CLOUDY 59 54 83 W5 29.90S FRENCHVILLE CLOUDY 57 53 86 W8 29.88S CARIBOU PTSUNNY 60 53 77 SW3 29.88S $$ NHZ002-005-008-009-011-012-014-281500- NEW HAMPSHIRE CITY SKY/WX TMP DP RH WIND PRES REMARKS PORTSMOUTH MOSUNNY 67 54 61 W12G17 29.97F ROCHESTER SUNNY 65 53 65 NW9 29.98F NASHUA MOSUNNY 67 53 61 W12 30.02F MANCHESTER MOSUNNY 66 49 54 W10 30.00F CONCORD SUNNY 66 53 63 NW13 30.01F LACONIA MOSUNNY N/A N/A N/A W14 30.00F PLYMOUTH CLOUDY 62 52 68 W7 30.01S BERLIN MOSUNNY 62 49 62 VRB6 29.98F WHITEFIELD PTSUNNY 59 50 72 SW9 30.01S JAFFREY SUNNY 63 52 67 W10G21 30.05S KEENE MOSUNNY 61 54 77 S3 30.05F LEBANON MOSUNNY 65 52 62 VRB5 30.01F MT WASHINGTON FOG 36 36 100 W40G48 N/A VSB 0 $$ VTZ005-007-008-281500- VERMONT CITY SKY/WX TMP DP RH WIND PRES REMARKS ST JOHNSBURY N/A 60 55 83 MISG 29.99F MONTPELIER MOSUNNY 59 55 87 NW6 30.06S BURLINGTON MOSUNNY 66 54 65 W10 30.01F $$ MAZ007-012-024-CTZ003-RIZ002-NYZ038-NYZ072-281500- SOUTHERN NEW ENGLAND AND NY CITY SKY/WX TMP DP RH WIND PRES REMARKS BOSTON MOSUNNY 68 53 58 W12 30.02S WORCESTER SUNNY 64 52 63 W15G22 30.06R NANTUCKET SUNNY 69 54 58 W13 30.03S PROVIDENCE MOSUNNY 69 53 56 NW7 30.04F HARTFORD MOSUNNY 69 52 54 W6 30.07F ALBANY MOSUNNY 68 52 56 W10 30.08S NEW YORK CITY MOSUNNY 69 52 54 NW10 30.11S $$ ANZ081-ANZ082-ANZ150-NHZ014-MEZ023>029-281500- COASTAL MARINE OBSERVATIONS STATION/POSITION TIME TEMP WIND PRES WAVE AIR SEA DIR/SP/G HT/PER (UTC) (F) (DEG/KT/KT) (MB) (FT/S) MATINICUS ROCK 1300 53 270/ 14/ 14 1013.7R ISLE OF SHOALS 1300 59 280/ 14/ 16 1015.2S JEFFREYS LEDGE 1306 58 N/A 2/ 3 CASHES LEDGE BUO 1250 62 61 1014.8 3/ 4 GEORGES BANK BUO 1250 57 55 1015.4 2/ 7 $$ .............KEY.............. WCI - WIND CHILL TC - TEMPERATURE IN CELSIUS VSB - VISIBILITY IN MILES HX - HEAT INDEX FAIR- INDICATES FEW OR NO CLOUDS BELOW 12,000 FT, WITH NO SIGNIFICANT WEATHER AND/OR OBSTRUCTIONS TO VISIBILITY.

USA.gov is the U.S. government's official web portal to all federal, state and local government web resources and services.